Terminal Aerodrome Forecast
Issued by NWS

Home | Current Version | Previous Version | Text Only | Print | Product List | Glossary On
Versions: 1 2 3 4 5 6 7 8 9 10 11 12 13 14 15 16
000
FTUS46 KMTR 242327
TAFOAK
TAF
KOAK 242327Z 2500/2606 28007KT P6SM FEW010 BKN150
     FM250500 VRB03KT P6SM SCT100 BKN200
     FM251000 VRB04KT P6SM FEW010 FEW100 BKN200
     FM251900 20007KT P6SM FEW100 BKN200
     FM252300 18006KT P6SM OVC150=

USA.gov is the U.S. government's official web portal to all federal, state and local government web resources and services.